Погода в Веленье

Словения     46°21′25″N   15°06′46″E
темп.,
°C
ветер,
м/с
пор.,
м/с
влажн.,
%
обл.,
%
осадки,
мм/ч
давл.,
гПа
погр.,
м
14 апреля, ср
ср1423:000ссв1197100 0.0 102424
02:000з1197100 0.0 102436
05:00−1зсз1296100 0.0 102444
08:00+1сз128796 0.0 1025110
11:00+5с376436 0.0 10241803
14:00+7с236294 0.2 10231385
17:00+7св126087 0.4 10221384
20:000ссв118971 0.6 102410
15 апреля, чт
чт1523:000с119284 0.0 102513
02:00−2сз1193100 0.0 102513
05:00−1сз1192100 0.0 102517
08:00+2ссз118498 0.0 1025128
11:00+7в116271 0.2 10241259
14:00+7ююв116190 0.9 10221344
17:00+6ю127196 1.1 1021733
20:00+3с1185100 1.8 102210
16 апреля, пт
пт1623:00+1с129699 0.0 102427
02:00−1ссз11966 0.0 102413
05:00−2с119534 0.0 102317
08:00+1св11885 0.0 1024168
11:00+7всв22647 0.0 1022979
14:00+10вюв124785 0.1 10211731
17:00+9вюв2347100 0.0 10191708
20:00+3ссв117421 0.0 102010
17 апреля, сб
сб1723:00+2с2283100 0.0 102220
02:00+1ссв2285100 0.0 102139
05:000ссв2292100 0.0 102029
08:00+3св2381100 0.0 1018220
11:00+6св41170100 0.0 10181457
14:00+6св41077100 0.1 10171198
17:00+8св4966100 0.2 10151473
20:00+5ссв3782100 0.3 1016481
18 апреля, вс
вс1823:00+4ссв2495100 0.3 1016294
02:00+4ссв2396100 0.6 1016107
05:00+3св2397100 1.0 1016160
08:00+3ссв2498100 2.9 1017344
11:00+4ссв2397100 1.3 1017449
14:00+4всв1297100 1.6 1017472
17:00+6ссв2392100 0.2 1017571
20:00+5с1296100 0.2 1018155